[Iaude] MPEC G81: 2017 GX6 [a=0.96,e=0.06,i=10.5,H=27.2]

mpec at si.edu mpec at si.edu
Mon Apr 10 18:27:44 EDT 2017


M.P.E.C. 2017-G81                                Issued 2017 Apr. 10, 22:24 UT
 
     The Minor Planet Electronic Circulars contain information on unusual
         minor planets and routine data on comets.  They are published
    on behalf of Division F of the International Astronomical Union by the
          Minor Planet Center, Smithsonian Astrophysical Observatory,
                          Cambridge, MA 02138, U.S.A.

             Prepared using the Tamkin Foundation Computer Network

                              MPC at CFA.HARVARD.EDU
            URL http://www.minorplanetcenter.net/    ISSN 1523-6714


                                   2017 GX6
 
Observations:
     K17G06X* C2017 04 08.41139 16 07 53.08 +26 03 04.4          19.0 VqEG081G96
     K17G06X  C2017 04 08.41566 16 07 55.03 +26 06 32.4          20.3 VqEG081G96
     K17G06X  C2017 04 08.41995 16 07 57.02 +26 10 04.3          19.3 VqEG081G96
     K17G06X  C2017 04 08.42422 16 07 58.94 +26 13 32.2                qEG081G96
     K17G06X  C2017 04 08.44539 16 08 08.59 +26 30 34.2          19.4 VqEG081G96
     K17G06X  C2017 04 08.44619 16 08 08.95 +26 31 13.4          19.3 VqEG081G96
     K17G06X  C2017 04 08.49504 16 08 31.64 +27 09 56.0          19.9 VqEG081G96
     K17G06X  C2017 04 08.49545 16 08 31.82 +27 10 15.9          20.0 VqEG081G96
     K17G06X  C2017 04 08.49626 16 08 32.20 +27 10 52.9          19.6 VqEG081G96
     K17G06X KC2017 04 08.93229116 14 41.51 +32 33 21.3          20.2 GUEG081J95
     K17G06X KC2017 04 08.94255716 14 48.44 +32 40 51.6          19.8 GUEG081J95
     K17G06X KC2017 04 08.95326016 14 55.37 +32 48 41.2          19.2 GUEG081J95
     K17G06X KC2017 04 08.96121716 15 00.55 +32 54 28.3          19.7 GUEG081J95
     K17G06X  C2017 04 09.44949 16 20 28.12 +38 22 47.1          19.6 RoEG081926
     K17G06X  C2017 04 09.45190 16 20 29.27 +38 24 15.5          20.6 RoEG081926
     K17G06X  C2017 04 09.45431 16 20 30.31 +38 25 43.8          19.6 RoEG081926
 
Observer details:
926 Tenagra II Observatory.  Observers M. Schwartz, P. R. Holvorcem.  Measurer
    M. Schwartz.  0.81-m f/7 Ritchey-Chretien + CCD.
G96 Mt. Lemmon Survey.  Observer D. C. Fuls.  Measurers E. J. Christensen,
    D. C. Fuls, A. R. Gibbs, A. D. Grauer, J. A. Johnson, R. A. Kowalski,
    S. M. Larson, G. J. Leonard, R. G. Matheny, R. L. Seaman, F. C. Shelly.
    1.5-m reflector + 10K CCD.
J95 Great Shefford.  Observer P. Birtwhistle.  0.40-m f/6.0 Schmidt-Cassegrain
    + CCD.
 
Orbital elements:
2017 GX6                                                 Earth MOID = 0.0089 AU
Epoch 2017 Feb. 16.0 TT = JDT 2457800.5                 MPC
M 152.65288              (2000.0)            P               Q
n   1.05392610     Peri.  158.81176     +0.99441916     +0.09248568
a   0.9563039      Node   196.13247     -0.10175814     +0.96784088
e   0.0605951      Incl.   10.52677     +0.02785332     +0.23394536
P   0.94           H   27.2           G   0.15           U   6
Residuals in seconds of arc
170408 G96 (0.1+  2.1-)   170408 G96  0.0   0.6-    170408 J95  0.3+  0.1-
170408 G96 (0.1+  2.4-)   170408 G96  0.2-  0.0     170409 926  0.3-  0.2+
170408 G96  0.4+  0.5+    170408 G96  0.3-  1.0-    170409 926  0.4+  0.0
170408 G96  0.0   0.9+    170408 J95  0.4-  0.4+    170409 926  0.2-  0.3-
170408 G96  0.0   0.5-    170408 J95  0.6+  0.5-
170408 G96  0.1-  0.3+    170408 J95  0.4-  0.3+

Ephemeris:
2017 GX6                 a,e,i = 0.96, 0.06, 11                  q = 0.8984
Date    TT    R. A. (2000) Decl.     Delta      r     Elong.  Phase     V
2017 03 11    12 21 06.2 -74 06 29   0.08618 1.0142   101.6    73.6    24.5
...
2017 03 26    13 45 07.7 -68 59 08   0.04008 1.0130   111.6    66.3    22.6
...
2017 04 03    15 03 25.4 -45 28 22   0.01677 1.0107   130.2    49.1    20.2
...
2017 04 09    16 14 59.4 +33 26 34   0.01329 1.0082   120.1    59.2    20.0
2017 04 10    16 27 15.3 +43 33 22   0.01528 1.0077   112.6    66.6    20.5
2017 04 11    16 39 28.3 +51 04 38   0.01764 1.0072   106.6    72.5    21.0
...
2017 04 17    17 48 55.7 +70 19 21   0.03479 1.0038    89.1    88.9    23.0
...
2017 04 25    19 04 16.8 +76 38 33   0.05915 0.9984    81.0    95.7    24.5
...
2017 05 10    20 46 45.4 +79 15 15   0.1028  0.9858    73.7   100.5    25.9

A. U. Tomatic                (C) Copyright 2017 MPC           M.P.E.C. 2017-G81




More information about the Iaude mailing list